| time (UTC) | temp C | wind direction | speed KPH | gust KPH | rain 1hr cm | rain 24hr cm | rain mn cm | humidity % | barometer mb |
| 20260506161559 | 16 | 0 | 1.6 | 14.5 | 0.03 | 0.03 | 0.03 | 85 | 1008.3 |
| 20260506160056 | 16 | 0 | 4.8 | 11.3 | 0.00 | 0.00 | 0.00 | 84 | 1008.3 |
| 20260506154600 | 17 | 242 | 3.2 | 14.5 | 0.00 | 0.00 | 0.00 | 81 | 1008.1 |
| 20260506153050 | 17 | 197 | 4.8 | 17.7 | 0.00 | 0.00 | 0.00 | 77 | 1008.5 |
| 20260506151558 | 18 | 242 | 6.4 | 16.1 | 0.00 | 0.00 | 0.00 | 75 | 1008.5 |
| 20260506150057 | 18 | 246 | 4.8 | 20.9 | 0.00 | 0.00 | 0.00 | 74 | 1008.5 |
| 20260506144554 | 18 | 190 | 4.8 | 14.5 | 0.00 | 0.00 | 0.00 | 73 | 1008.5 |
| 20260506143052 | 18 | 238 | 6.4 | 24.1 | 0.00 | 0.00 | 0.00 | 73 | 1008.7 |
| 20260506141556 | 17 | 184 | 4.8 | 17.7 | 0.00 | 0.00 | 0.00 | 75 | 1008.9 |
| 20260506140100 | 17 | 256 | 6.4 | 14.5 | 0.00 | 0.00 | 0.00 | 76 | 1009.0 |
| 20260506134550 | 17 | 0 | 3.2 | 16.1 | 0.00 | 0.00 | 0.00 | 77 | 1008.8 |
| 20260506133100 | 16 | 186 | 3.2 | 14.5 | 0.00 | 0.00 | 0.00 | 78 | 1008.6 |
| 20260506131552 | 16 | 140 | 3.2 | 11.3 | 0.00 | 0.00 | 0.00 | 78 | 1008.5 |
| 20260506130053 | 16 | 161 | 3.2 | 16.1 | 0.00 | 0.00 | 0.00 | 77 | 1008.4 |
| 20260506124554 | 16 | 120 | 3.2 | 14.5 | 0.00 | 0.00 | 0.00 | 77 | 1008.6 |
| 20260506123049 | 16 | 185 | 8.0 | 14.5 | 0.00 | 0.00 | 0.00 | 77 | 1008.6 |
| 20260506121546 | 16 | 186 | 4.8 | 19.3 | 0.00 | 0.00 | 0.00 | 77 | 1008.7 |
| 20260506120106 | 16 | 121 | 8.0 | 27.4 | 0.00 | 0.00 | 0.00 | 78 | 1009.1 |
| 20260506114606 | 16 | 202 | 8.0 | 25.7 | 0.00 | 0.00 | 0.00 | 78 | 1008.9 |
| 20260506113053 | 16 | 222 | 9.7 | 24.1 | 0.00 | 0.00 | 0.00 | 79 | 1008.6 |
| 20260506111555 | 16 | 155 | 8.0 | 19.3 | 0.00 | 0.00 | 0.00 | 79 | 1008.8 |
| 20260506110054 | 15 | 209 | 4.8 | 16.1 | 0.00 | 0.00 | 0.00 | 79 | 1008.8 |
| 20260506104554 | 15 | 157 | 4.8 | 17.7 | 0.00 | 0.00 | 0.00 | 80 | 1008.8 |
| 20260506103057 | 15 | 219 | 3.2 | 14.5 | 0.00 | 0.00 | 0.00 | 79 | 1008.6 |
| 20260506101550 | 15 | 166 | 3.2 | 17.7 | 0.00 | 0.00 | 0.00 | 79 | 1008.5 |
| 20260506100053 | 15 | 216 | 6.4 | 17.7 | 0.00 | 0.00 | 0.00 | 78 | 1008.5 |
| 20260506094554 | 15 | 234 | 4.8 | 14.5 | 0.00 | 0.00 | 0.00 | 77 | 1008.5 |
| 20260506093106 | 15 | 139 | 6.4 | 14.5 | 0.00 | 0.00 | 0.00 | 77 | 1008.3 |
| 20260506091548 | 15 | 212 | 4.8 | 27.4 | 0.00 | 0.00 | 0.00 | 76 | 1008.3 |
| 20260506090056 | 15 | 149 | 6.4 | 16.1 | 0.00 | 0.00 | 0.00 | 75 | 1008.3 |
| 20260506084556 | 16 | 180 | 4.8 | 24.1 | 0.00 | 0.00 | 0.00 | 73 | 1008.5 |
| 20260506083057 | 16 | 144 | 4.8 | 17.7 | 0.00 | 0.00 | 0.00 | 72 | 1008.7 |
| 20260506081548 | 16 | 141 | 4.8 | 22.5 | 0.00 | 0.00 | 0.00 | 70 | 1008.8 |
| 20260506080107 | 17 | 124 | 6.4 | 14.5 | 0.00 | 0.00 | 0.00 | 68 | 1008.6 |
| 20260506073102 | 17 | 136 | 4.8 | 17.7 | 0.00 | 0.00 | 0.00 | 66 | 1008.6 |
| 20260506071549 | 17 | 190 | 4.8 | 17.7 | 0.00 | 0.00 | 0.00 | 65 | 1008.9 |
| 20260506061600 | 18 | 133 | 8.0 | 22.5 | 0.00 | 0.00 | 0.00 | 62 | 1009.0 |
| 20260506044604 | 18 | 125 | 4.8 | 12.9 | 0.00 | 0.00 | 0.00 | 61 | 1009.4 |
| 20260506043051 | 18 | 168 | 4.8 | 14.5 | 0.00 | 0.00 | 0.00 | 60 | 1009.4 |
| 20260506041606 | 18 | 126 | 4.8 | 14.5 | 0.00 | 0.00 | 0.00 | 59 | 1009.4 |
| 20260506040056 | 18 | 166 | 1.6 | 17.7 | 0.00 | 0.00 | 0.00 | 59 | 1009.4 |
| 20260506034549 | 18 | 175 | 3.2 | 16.1 | 0.00 | 0.00 | 0.00 | 58 | 1009.3 |
| 20260506033055 | 18 | 132 | 4.8 | 20.9 | 0.00 | 0.00 | 0.00 | 58 | 1009.4 |
| 20260506031549 | 18 | 236 | 6.4 | 17.7 | 0.00 | 0.00 | 0.00 | 57 | 1009.4 |
| 20260506030054 | 19 | 128 | 4.8 | 14.5 | 0.00 | 0.00 | 0.00 | 55 | 1009.3 |
| 20260506024600 | 20 | 126 | 6.4 | 16.1 | 0.00 | 0.00 | 0.00 | 52 | 1009.2 |
| 20260506023057 | 21 | 209 | 4.8 | 14.5 | 0.00 | 0.00 | 0.00 | 48 | 1009.1 |
| 20260506021554 | 21 | 106 | 8.0 | 20.9 | 0.00 | 0.00 | 0.00 | 46 | 1009.0 |
| 20260506020121 | 21 | 183 | 3.2 | 17.7 | 0.00 | 0.00 | 0.00 | 46 | 1009.0 |
| 20260506014554 | 21 | 135 | 4.8 | 12.9 | 0.00 | 0.00 | 0.00 | 45 | 1008.9 |
| 20260506013048 | 21 | 124 | 1.6 | 11.3 | 0.00 | 0.00 | 0.00 | 44 | 1008.7 |
| 20260506011559 | 21 | 249 | 1.6 | 12.9 | 0.00 | 0.00 | 0.00 | 42 | 1008.5 |
| 20260506010049 | 22 | 128 | 3.2 | 8.0 | 0.00 | 0.00 | 0.00 | 41 | 1008.3 |
| 20260506004551 | 22 | 248 | 4.8 | 19.3 | 0.00 | 0.00 | 0.00 | 37 | 1008.2 |
| 20260506003053 | 23 | 185 | 6.4 | 19.3 | 0.00 | 0.00 | 0.00 | 37 | 1008.1 |
| 20260506001559 | 23 | 221 | 6.4 | 20.9 | 0.00 | 0.00 | 0.00 | 37 | 1007.8 |
| 20260506000104 | 23 | 265 | 9.7 | 24.1 | 0.00 | 0.00 | 0.00 | 35 | 1007.7 |
| 20260505234548 | 24 | 178 | 14.5 | 29.0 | 0.00 | 0.00 | 0.00 | 34 | 1007.5 |
| 20260505233056 | 24 | 188 | 14.5 | 25.7 | 0.00 | 0.00 | 0.00 | 34 | 1007.3 |
| 20260505231557 | 24 | 232 | 6.4 | 20.9 | 0.00 | 0.00 | 0.00 | 34 | 1007.3 |
| 20260505230054 | 25 | 174 | 9.7 | 25.7 | 0.00 | 0.00 | 0.00 | 34 | 1007.0 |
| 20260505224552 | 25 | 248 | 9.7 | 20.9 | 0.00 | 0.00 | 0.00 | 35 | 1006.7 |
| 20260505223059 | 25 | 269 | 4.8 | 17.7 | 0.00 | 0.00 | 0.00 | 34 | 1006.7 |
| 20260505221558 | 25 | 152 | 9.7 | 29.0 | 0.00 | 0.00 | 0.00 | 35 | 1006.5 |
| 20260505220105 | 26 | 200 | 11.3 | 33.8 | 0.00 | 0.00 | 0.00 | 33 | 1006.5 |
| 20260505214556 | 25 | 176 | 6.4 | 25.7 | 0.00 | 0.00 | 0.00 | 37 | 1006.4 |
| 20260505213047 | 26 | 188 | 3.2 | 22.5 | 0.00 | 0.00 | 0.00 | 37 | 1006.4 |
| 20260505211621 | 27 | 198 | 8.0 | 35.4 | 0.00 | 0.00 | 0.00 | 34 | 1006.2 |
| 20260505210051 | 27 | 192 | 8.0 | 29.0 | 0.00 | 0.00 | 0.00 | 31 | 1006.0 |
| 20260505204558 | 27 | 144 | 16.1 | 41.8 | 0.00 | 0.00 | 0.00 | 33 | 1006.0 |
| 20260505203047 | 26 | 240 | 14.5 | 32.2 | 0.00 | 0.00 | 0.00 | 34 | 1006.2 |
| 20260505201859 | 26 | 211 | 14.5 | 32.2 | 0.00 | 0.00 | 0.00 | 35 | 1006.4 |
| 20260505200055 | 27 | 193 | 11.3 | 29.0 | 0.00 | 0.00 | 0.00 | 33 | 1006.4 |
| 20260505194554 | 27 | 243 | 14.5 | 38.6 | 0.00 | 0.00 | 0.00 | 33 | 1006.4 |
| 20260505193048 | 26 | 235 | 14.5 | 33.8 | 0.00 | 0.00 | 0.00 | 33 | 1006.7 |
| 20260505191603 | 26 | 217 | 8.0 | 33.8 | 0.00 | 0.00 | 0.00 | 37 | 1006.8 |
| 20260505190108 | 26 | 145 | 9.7 | 25.7 | 0.00 | 0.00 | 0.00 | 39 | 1006.8 |
| 20260505184550 | 26 | 209 | 6.4 | 27.4 | 0.00 | 0.00 | 0.00 | 41 | 1007.1 |
| 20260505183051 | 26 | 296 | 14.5 | 27.4 | 0.00 | 0.00 | 0.00 | 40 | 1007.5 |
| 20260505181634 | 26 | 216 | 9.7 | 30.6 | 0.00 | 0.00 | 0.00 | 40 | 1007.4 |
| 20260505174549 | 26 | 166 | 11.3 | 27.4 | 0.00 | 0.00 | 0.00 | 40 | 1007.9 |
| 20260505173051 | 25 | 217 | 12.9 | 27.4 | 0.00 | 0.00 | 0.00 | 43 | 1007.8 |
| 20260505171553 | 25 | 250 | 11.3 | 30.6 | 0.00 | 0.00 | 0.00 | 44 | 1007.9 |
| 20260505170050 | 25 | 157 | 9.7 | 29.0 | 0.00 | 0.00 | 0.00 | 44 | 1008.0 |
| 20260505164549 | 25 | 204 | 6.4 | 22.5 | 0.00 | 0.00 | 0.00 | 44 | 1008.4 |
| 20260505163048 | 24 | 190 | 12.9 | 27.4 | 0.00 | 0.00 | 0.00 | 45 | 1008.6 |